When you browse on this site, cookies collect data to enhance your experience and personalize the content and advertising you see.
Visit our Privacy Policy to learn more. By continuing to use the site, you agree to this use of cookies and data.
  • En España
  • Lista de países
  • Para 7 días
  • Temperatura del agua
  • Mapa Satelital
  • El tiempo en el mapa
  • Informadores
  • user-avatar
    Iniciar sesión

    Tiempo cada hora Koltakovo

    Hoy, 16 Enero, Miércoles

    Tiempo Temperatura Precipitaciones Viento Presión Humedad
    00:00 -9°C° 0 mm 3 mps 721 mmHg 93%
    01:00 -9°C° 0 mm 3 mps 721 mmHg 93%
    02:00 -9°C° 0 mm 3 mps 722 mmHg 93%
    03:00 -9°C° 0 mm 3 mps 722 mmHg 93%
    04:00 -10°C° 0 mm 3 mps 722 mmHg 94%
    05:00 -9°C° 0 mm 2 mps 722 mmHg 94%
    06:00 -9°C° 0 mm 2 mps 722 mmHg 94%
    07:00 -10°C° 0 mm 2 mps 722 mmHg 94%
    08:00 -10°C° 0 mm 2 mps 722 mmHg 95%
    09:00 -12°C° 0 mm 3 mps 723 mmHg 94%
    10:00 -10°C° 0 mm 3 mps 723 mmHg 94%
    11:00 -10°C° 0 mm 3 mps 723 mmHg 94%
    12:00 -9°C° 0 mm 3 mps 724 mmHg 93%
    13:00 -9°C° 0 mm 3 mps 724 mmHg 93%
    14:00 -8°C° 0 mm 3 mps 724 mmHg 92%
    15:00 -8°C° 0 mm 3 mps 724 mmHg 93%
    16:00 -8°C° 0 mm 3 mps 725 mmHg 93%
    17:00 -8°C° 0 mm 3 mps 725 mmHg 94%
    18:00 -8°C° 0 mm 3 mps 726 mmHg 93%
    19:00 -8°C° 0 mm 3 mps 726 mmHg 92%
    20:00 -8°C° 0 mm 3 mps 727 mmHg 91%
    21:00 -9°C° 0 mm 3 mps 727 mmHg 91%
    22:00 -9°C° 0 mm 3 mps 727 mmHg 91%
    23:00 -10°C° 0 mm 3 mps 727 mmHg 91%

    Mañana, 17 Enero, Jueves

    Tiempo Temperatura Precipitaciones Viento Presión Humedad
    00:00 -12°C° 0 mm 3 mps 728 mmHg 93%
    01:00 -13°C° 0 mm 3 mps 728 mmHg 95%
    02:00 -13°C° 0 mm 3 mps 728 mmHg 97%
    03:00 -13°C° 0 mm 3 mps 728 mmHg 96%
    04:00 -13°C° 0 mm 3 mps 727 mmHg 96%
    05:00 -12°C° 0 mm 3 mps 727 mmHg 96%
    06:00 -11°C° 0.3 mm 4 mps 726 mmHg 94%
    07:00 -10°C° 0.3 mm 4 mps 726 mmHg 93%
    08:00 -10°C° 0.3 mm 5 mps 725 mmHg 92%
    09:00 -8°C° 0.6 mm 5 mps 725 mmHg 92%
    10:00 -7°C° 0.6 mm 5 mps 724 mmHg 91%
    11:00 -6°C° 0.6 mm 6 mps 724 mmHg 91%
    12:00 -4°C° 0.3 mm 6 mps 723 mmHg 91%
    13:00 -3°C° 0.3 mm 6 mps 722 mmHg 90%
    14:00 -2°C° 0.3 mm 6 mps 722 mmHg 90%
    15:00 -2°C° 0.5 mm 6 mps 721 mmHg 90%
    16:00 -2°C° 0.5 mm 7 mps 721 mmHg 89%
    17:00 -1°C° 0.5 mm 7 mps 720 mmHg 89%
    18:00 -2°C° 0.6 mm 7 mps 720 mmHg 88%
    19:00 -2°C° 0.6 mm 7 mps 720 mmHg 88%
    20:00 -2°C° 0.6 mm 6 mps 720 mmHg 87%
    21:00 -2°C° 0.1 mm 6 mps 721 mmHg 87%
    22:00 -2°C° 0.1 mm 6 mps 721 mmHg 86%
    23:00 -2°C° 0.1 mm 6 mps 722 mmHg 86%

    Pasado mañana, 18 Enero, Viernes

    Tiempo Temperatura Precipitaciones Viento Presión Humedad
    00:00 -2°C° 0.1 mm 6 mps 722 mmHg 86%
    01:00 -1°C° 0.1 mm 5 mps 722 mmHg 87%
    02:00 -1°C° 0.1 mm 5 mps 722 mmHg 88%
    03:00 -1°C° 0.1 mm 5 mps 722 mmHg 88%
    04:00 -2°C° 0.1 mm 5 mps 722 mmHg 88%
    05:00 -2°C° 0.1 mm 5 mps 721 mmHg 88%
    06:00 -2°C° 0.3 mm 5 mps 721 mmHg 88%
    07:00 -3°C° 0.3 mm 6 mps 720 mmHg 89%
    08:00 -3°C° 0.3 mm 6 mps 720 mmHg 89%
    09:00 -3°C° 0.4 mm 6 mps 720 mmHg 86%
    10:00 -3°C° 0.4 mm 6 mps 720 mmHg 83%
    11:00 -4°C° 0.4 mm 6 mps 720 mmHg 79%
    12:00 -4°C° 0.2 mm 6 mps 720 mmHg 79%
    13:00 -6°C° 0.2 mm 7 mps 721 mmHg 79%
    14:00 -6°C° 0.2 mm 7 mps 721 mmHg 79%
    15:00 -7°C° 0.2 mm 7 mps 721 mmHg 81%
    16:00 -6°C° 0.2 mm 6 mps 722 mmHg 83%
    17:00 -8°C° 0.2 mm 6 mps 722 mmHg 84%
    18:00 -8°C° 0.1 mm 6 mps 723 mmHg 84%
    19:00 -9°C° 0.1 mm 6 mps 724 mmHg 83%
    20:00 -9°C° 0.1 mm 6 mps 724 mmHg 82%
    21:00 -9°C° 0.1 mm 6 mps 725 mmHg 83%
    22:00 -10°C° 0.1 mm 6 mps 725 mmHg 84%
    23:00 -10°C° 0.1 mm 5 mps 726 mmHg 85%

    19 Enero, Sábado

    Tiempo Temperatura Precipitaciones Viento Presión Humedad
    00:00 -10°C° 0.1 mm 5 mps 726 mmHg 85%
    01:00 -10°C° 0.1 mm 6 mps 727 mmHg 85%
    02:00 -10°C° 0.1 mm 6 mps 727 mmHg 85%
    03:00 -10°C° 0.1 mm 6 mps 728 mmHg 85%
    04:00 -10°C° 0.1 mm 6 mps 728 mmHg 85%
    05:00 -10°C° 0.1 mm 6 mps 728 mmHg 85%
    06:00 -10°C° 0.1 mm 6 mps 729 mmHg 85%
    07:00 -10°C° 0.1 mm 6 mps 729 mmHg 85%
    08:00 -10°C° 0.1 mm 5 mps 730 mmHg 85%
    09:00 -10°C° 0.1 mm 5 mps 730 mmHg 85%
    10:00 -9°C° 0.1 mm 6 mps 731 mmHg 84%
    11:00 -9°C° 0.1 mm 6 mps 732 mmHg 84%
    12:00 -9°C° 0.1 mm 6 mps 732 mmHg 84%
    13:00 -9°C° 0.1 mm 6 mps 732 mmHg 84%
    14:00 -9°C° 0.1 mm 6 mps 732 mmHg 83%
    15:00 -8°C° 0.1 mm 5 mps 732 mmHg 84%
    16:00 -8°C° 0.1 mm 5 mps 732 mmHg 85%
    17:00 -8°C° 0.1 mm 5 mps 733 mmHg 87%
    18:00 -8°C° 0.1 mm 5 mps 733 mmHg 88%
    19:00 -8°C° 0.1 mm 5 mps 733 mmHg 89%
    20:00 -10°C° 0.1 mm 5 mps 733 mmHg 90%
    21:00 -10°C° 0.1 mm 5 mps 733 mmHg 90%
    22:00 -9°C° 0.1 mm 4 mps 734 mmHg 90%
    23:00 -9°C° 0.1 mm 4 mps 734 mmHg 90%

    20 Enero, Domingo

    Tiempo Temperatura Precipitaciones Viento Presión Humedad
    00:00 -9°C° 0.1 mm 4 mps 734 mmHg 90%
    01:00 -9°C° 0.1 mm 4 mps 734 mmHg 90%
    02:00 -9°C° 0.1 mm 4 mps 735 mmHg 91%
    03:00 -10°C° 0 mm 4 mps 735 mmHg 91%
    04:00 -9°C° 0 mm 3 mps 735 mmHg 92%
    05:00 -9°C° 0 mm 3 mps 735 mmHg 93%
    06:00 -9°C° 0 mm 3 mps 735 mmHg 94%
    07:00 -10°C° 0 mm 3 mps 735 mmHg 94%
    08:00 -9°C° 0 mm 2 mps 735 mmHg 95%
    09:00 -9°C° 0 mm 2 mps 736 mmHg 94%
    10:00 -10°C° 0 mm 3 mps 736 mmHg 94%
    11:00 -9°C° 0 mm 3 mps 736 mmHg 93%
    12:00 -8°C° 0 mm 2 mps 736 mmHg 93%
    13:00 -8°C° 0 mm 2 mps 736 mmHg 92%
    14:00 -8°C° 0 mm 2 mps 736 mmHg 92%
    15:00 -8°C° 0 mm 2 mps 736 mmHg 93%
    16:00 -9°C° 0 mm 2 mps 736 mmHg 95%
    17:00 -9°C° 0 mm 1 mps 736 mmHg 96%
    18:00 -9°C° 0 mm 1 mps 737 mmHg 97%
    19:00 -10°C° 0 mm 1 mps 737 mmHg 97%
    20:00 -10°C° 0 mm 1 mps 737 mmHg 97%
    21:00 -10°C° 0 mm 1 mps 737 mmHg 97%
    22:00 -10°C° 0 mm 1 mps 737 mmHg 97%
    23:00 -11°C° 0 mm 1 mps 738 mmHg 97%

    21 Enero, Lunes

    Tiempo Temperatura Precipitaciones Viento Presión Humedad
    00:00 -11°C° 0 mm 1 mps 738 mmHg 98%
    01:00 -12°C° 0 mm 1 mps 738 mmHg 98%
    02:00 -13°C° 0 mm 1 mps 738 mmHg 98%
    03:00 -13°C° 0 mm 1 mps 739 mmHg 98%
    04:00 -13°C° 0 mm 1 mps 739 mmHg 97%
    05:00 -14°C° 0 mm 1 mps 739 mmHg 97%
    06:00 -15°C° 0 mm 1 mps 739 mmHg 98%
    07:00 -16°C° 0 mm 1 mps 740 mmHg 98%
    08:00 -17°C° 0 mm 1 mps 740 mmHg 98%
    09:00 -18°C° 0 mm 2 mps 740 mmHg 97%
    10:00 -18°C° 0 mm 2 mps 741 mmHg 96%
    11:00 -17°C° 0 mm 2 mps 741 mmHg 96%
    12:00 -16°C° 0 mm 2 mps 742 mmHg 95%
    13:00 -16°C° 0 mm 2 mps 742 mmHg 95%
    14:00 -16°C° 0 mm 2 mps 742 mmHg 95%
    15:00 -17°C° 0 mm 2 mps 742 mmHg 96%
    16:00 -19°C° 0 mm 2 mps 742 mmHg 97%
    17:00 -20°C° 0 mm 2 mps 742 mmHg 98%
    18:00 -21°C° 0 mm 2 mps 742 mmHg 99%
    19:00 -21°C° 0 mm 2 mps 742 mmHg 99%
    20:00 -20°C° 0 mm 1 mps 742 mmHg 99%
    21:00 -20°C° 0 mm 1 mps 742 mmHg 99%
    22:00 -20°C° 0 mm 1 mps 743 mmHg 99%
    23:00 -20°C° 0 mm 1 mps 743 mmHg 99%
    Mostrar más